QPF
0.00 0.00 0.00 0.00 0.01 0.02 0.03 0.07 0.01 0.03 0.03 0.02 0.00 0.00 0.00 0.00 0.00 0.00 0.00 0.00 0.00 0.00 0.00 0.00 0.00 0.00 0.00 0.00 0.00 0.00 0.00 0.00 0.00 0.00 0.00 0.00 0.00 0.00 0.00 0.00 0.00 0.00 0.00
0.00 0.00 0.00 0.00 0.00 0.01 0.13 0.13 0.03 0.00 0.00 0.00 0.00 0.00 0.00 0.00 0.00 0.00 0.00 0.00 0.00 0.00 0.00 0.00 0.00 0.00 0.00 0.00 0.00 0.00 0.00 0.00 0.00 0.00 0.00 0.00 0.00 0.00 0.00 0.00 0.00 0.00 0.00
0.00 0.00 0.00 0.00 0.00 0.00 0.09 0.08 0.01 0.01 0.00 0.00 0.00 0.00 0.00 0.00 0.00 0.00 0.00 0.00 0.00 0.00 0.00 0.00 0.00 0.00 0.00 0.00 0.00 0.00 0.00 0.00 0.00 0.00 0.00 0.00 0.00 0.00 0.00 0.00 0.00 0.00 0.00
0.00 0.00 0.00 0.00 0.00 0.01 0.07 0.04 0.00 0.00 0.00 0.00 0.00 0.00 0.00 0.00 0.00 0.00 0.00 0.00 0.00 0.00 0.00 0.00 0.00 0.00 0.00 0.00 0.00 0.00 0.00 0.00 0.00 0.00 0.00 0.00 0.00 0.00 0.00 0.00 0.00 0.00 0.00
0.00 0.00 0.00 0.00 0.00 0.00 0.00 0.02 0.00 0.00 0.00 0.00 0.00 0.00 0.00 0.00 0.00 0.00 0.00 0.00 0.00 0.00 0.00 0.00 0.00 0.00 0.00 0.00 0.00 0.00 0.00 0.00 0.00 0.00 0.00 0.00 0.00 0.00 0.00 0.00 0.00 0.00 0.00
0.00 0.00 0.00 0.01 0.00 0.00 0.00 0.00 0.00 0.00 0.00 0.00 0.00 0.00 0.00 0.00 0.00 0.00 0.00 0.00 0.00 0.00 0.00 0.00 0.00 0.00 0.00 0.00 0.00 0.00 0.00 0.00 0.00 0.00 0.00 0.00 0.00 0.00 0.00 0.00 0.00 0.00 0.00
0.00 0.00 0.02 0.02 0.00 0.00 0.00 0.00 0.00 0.00 0.00 0.00 0.00 0.00 0.00 0.00 0.00 0.00 0.00 0.00 0.00 0.00 0.00 0.00 0.00 0.00 0.00 0.00 0.00 0.00 0.00 0.00 0.00 0.00 0.00 0.00 0.00 0.00 0.00 0.00 0.00 0.00 0.00
0.00 0.00 0.00 0.00 0.00 0.00 0.00 0.00 0.00 0.00 0.00 0.00 0.00 0.00 0.00 0.00 0.00 0.00 0.00 0.00 0.00 0.00 0.00 0.00 0.00 0.00 0.00 0.00 0.00 0.00 0.00 0.00 0.00 0.00 0.00 0.00 0.00 0.00 0.00 0.00 0.00 0.00 0.00
0.00 0.00 0.00 0.00 0.00 0.00 0.00 0.00 0.00 0.00 0.00 0.00 0.00 0.00 0.00 0.00 0.00 0.00 0.00 0.00 0.00 0.00 0.00 0.00 0.00 0.00 0.00 0.00 0.00 0.00 0.00 0.00 0.00 0.00 0.00 0.00 0.00 0.00 0.00 0.00 0.00 0.00 0.00
0.00 0.00 0.00 0.00 0.00 0.00 0.00 0.00 0.00 0.00 0.00 0.00 0.00 0.00 0.00 0.00 0.00 0.00 0.00 0.00 0.00 0.00 0.00 0.00 0.00 0.00 0.00 0.00 0.00 0.00 0.00 0.00 0.00 0.00 0.00 0.00 0.00 0.00 0.00 0.00 0.00 0.00 0.00
0.00 0.00 0.00 0.00 0.00 0.00 0.00 0.00 0.00 0.00 0.00 0.00 0.00 0.00 0.00 0.00 0.00 0.00 0.00 0.00 0.00 0.00 0.00 0.00 0.00 0.00 0.00 0.00 0.00 0.00 0.00 0.00 0.00 0.00 0.00 0.00 0.00 0.00 0.00 0.00 0.00 0.00 0.00
0.00 0.00 0.00 0.00 0.00 0.00 0.00 0.00 0.00 0.00 0.00 0.00 0.00 0.00 0.00 0.00 0.00 0.00 0.00 0.00 0.00 0.00 0.00 0.00 0.00 0.00 0.00 0.00 0.00 0.00 0.00 0.00 0.00 0.00 0.00 0.00 0.00 0.00 0.00 0.00 0.00 0.00 0.00
0.00 0.00 0.00 0.00 0.00 0.00 0.00 0.00 0.00 0.00 0.00 0.00 0.00 0.00 0.00 0.00 0.00 0.00 0.00 0.00 0.00 0.00 0.00 0.00 0.00 0.00 0.00 0.00 0.00 0.00 0.00 0.00 0.00 0.00 0.00 0.00 0.00 0.00 0.00 0.00 0.00 0.00 0.00
0.00 0.00 0.00 0.00 0.00 0.00 0.00 0.00 0.00 0.00 0.00 0.00 0.00 0.00 0.00 0.00 0.00 0.00 0.00 0.00 0.00 0.00 0.00 0.00 0.00 0.00 0.00 0.00 0.00 0.00 0.00 0.00 0.00 0.00 0.00 0.00 0.00 0.00 0.00 0.00 0.00 0.00 0.00
0.00 0.00 0.00 0.00 0.00 0.00 0.00 0.00 0.00 0.00 0.00 0.00 0.00 0.00 0.00 0.00 0.00 0.00 0.00 0.00 0.00 0.00 0.00 0.00 0.00 0.00 0.00 0.00 0.00 0.00 0.00 0.00 0.00 0.00 0.00 0.00 0.00 0.00 0.00 0.00 0.00 0.00 0.00
0.00 0.00 0.00 0.00 0.00 0.00 0.00 0.00 0.00 0.00 0.00 0.00 0.00 0.00 0.00 0.00 0.00 0.00 0.00 0.00 0.00 0.00 0.00 0.00 0.00 0.00 0.00 0.00 0.00 0.00 0.00 0.00 0.00 0.00 0.00 0.00 0.00 0.00 0.00 0.00 0.00 0.00 0.00
0.00 0.00 0.00 0.00 0.00 0.00 0.00 0.00 0.00 0.00 0.00 0.00 0.00 0.00 0.00 0.00 0.00 0.00 0.00 0.00 0.00 0.00 0.00 0.00 0.00 0.00 0.00 0.00 0.00 0.00 0.00 0.00 0.00 0.00 0.00 0.00 0.00 0.00 0.00 0.00 0.00 0.00 0.00
0.00 0.00 0.00 0.00 0.00 0.00 0.00 0.00 0.00 0.00 0.00 0.00 0.00 0.00 0.00 0.00 0.00 0.00 0.00 0.00 0.00 0.00 0.00 0.00 0.00 0.00 0.00 0.00 0.00 0.00 0.00 0.00 0.00 0.00 0.00 0.00 0.00 0.00 0.00 0.00 0.00 0.00 0.00
0.00 0.00 0.00 0.00 0.00 0.00 0.00 0.00 0.00 0.00 0.00 0.00 0.00 0.00 0.00 0.00 0.00 0.00 0.00 0.00 0.00 0.00 0.00 0.00 0.00 0.00 0.00 0.00 0.00 0.00 0.00 0.00 0.00 0.00 0.00 0.00 0.00 0.00 0.00 0.00 0.00 0.00 0.00
0.00 0.00 0.00 0.00 0.00 0.00 0.00 0.00 0.00 0.00 0.00 0.00 0.00 0.00 0.00 0.00 0.00 0.00 0.00 0.00 0.00 0.00 0.00 0.00 0.00 0.00 0.00 0.00 0.00 0.00 0.00 0.00 0.00 0.00 0.00 0.00 0.00 0.00 0.00 0.00 0.00 0.00 0.00
0.00 0.00 0.00 0.00 0.00 0.00 0.00 0.00 0.00 0.00 0.00 0.00 0.00 0.00 0.00 0.00 0.00 0.00 0.00 0.00 0.00 0.00 0.00 0.00 0.00 0.00 0.00 0.00 0.00 0.00 0.00 0.00 0.00 0.00 0.00 0.00 0.00 0.00 0.00 0.00 0.00 0.00 0.00
0.00 0.00 0.00 0.00 0.00 0.00 0.00 0.00 0.00 0.00 0.00 0.00 0.00 0.00 0.00 0.00 0.00 0.00 0.00 0.00 0.00 0.00 0.00 0.00 0.00 0.00 0.00 0.00 0.00 0.00 0.00 0.00 0.00 0.00 0.00 0.00 0.00 0.00 0.00 0.00 0.00 0.00 0.00
0.00 0.00 0.00 0.00 0.00 0.00 0.00 0.00 0.00 0.00 0.00 0.00 0.00 0.00 0.00 0.00 0.00 0.00 0.00 0.00 0.00 0.00 0.00 0.00 0.00 0.00 0.00 0.00 0.00 0.00 0.00 0.00 0.00 0.00 0.00 0.00 0.00 0.00 0.00 0.00 0.00 0.00 0.00
0.00 0.00 0.00 0.00 0.00 0.00 0.00 0.00 0.00 0.00 0.00 0.00 0.00 0.00 0.00 0.00 0.00 0.00 0.00 0.00 0.00 0.00 0.00 0.00 0.00 0.00 0.00 0.00 0.00 0.00 0.00 0.00 0.00 0.00 0.00 0.00 0.00 0.00 0.00 0.00 0.00 0.00 0.00
0.00 0.00 0.00 0.00 0.00 0.00 0.00 0.00 0.00 0.00 0.00 0.00 0.00 0.00 0.00 0.00 0.00 0.00 0.00 0.00 0.00 0.00 0.00 0.00 0.00 0.00 0.00 0.00 0.00 0.00 0.00 0.00 0.00 0.00 0.00 0.00 0.00 0.00 0.00 0.00 0.00 0.00 0.00
0.00 0.00 0.00 0.00 0.00 0.00 0.00 0.00 0.00 0.00 0.00 0.00 0.00 0.00 0.00 0.00 0.00 0.00 0.00 0.00 0.00 0.00 0.00 0.00 0.00 0.00 0.00 0.00 0.00 0.00 0.00 0.00 0.00 0.00 0.00 0.00 0.00 0.00 0.00 0.00 0.00 0.00 0.00
MSLP
1013.69 1013.71 1014.12 1014.87 1015.78 1016.33 1016.65 1017.39 1018.24 1019.21 1019.70 1020.66 1020.88 1021.53 1022.11 1022.29 1022.67 1022.40 1022.38 1022.82 1023.22 1023.63 1024.05 1024.29 1024.37 1024.43 1024.66 1024.83 1024.80 1024.89 1024.92 1024.89 1024.73 1024.81 1024.88 1024.64 1024.48 1024.51 1024.71 1024.69 1024.67 1024.63 1024.58
1013.67 1013.67 1014.15 1014.83 1015.65 1016.38 1016.93 1017.43 1018.16 1018.80 1019.53 1020.07 1020.48 1020.91 1021.45 1022.11 1022.08 1022.26 1022.76 1023.11 1023.46 1023.67 1023.87 1024.19 1024.50 1024.58 1024.67 1024.80 1024.91 1024.99 1025.13 1025.09 1025.01 1025.30 1025.30 1025.40 1025.07 1025.16 1025.11 1025.05 1024.99 1025.17 1024.89
1013.51 1013.85 1014.11 1015.09 1015.96 1016.73 1017.16 1017.55 1018.20 1018.43 1018.98 1019.58 1020.27 1020.87 1021.40 1022.06 1022.52 1022.90 1023.22 1023.27 1023.32 1023.51 1023.84 1024.24 1024.58 1024.75 1024.82 1024.99 1024.92 1024.90 1025.09 1025.36 1025.20 1025.20 1025.68 1025.99 1026.08 1025.82 1025.45 1025.33 1025.43 1025.51 1025.36
1013.28 1013.65 1014.17 1015.20 1016.14 1017.02 1017.16 1017.59 1017.99 1018.35 1018.77 1019.42 1019.87 1020.45 1021.36 1022.05 1022.48 1022.79 1023.31 1023.67 1023.57 1023.65 1023.90 1024.19 1024.45 1024.72 1024.89 1025.00 1024.89 1024.63 1024.99 1025.15 1025.62 1025.65 1025.75 1025.97 1026.24 1026.25 1026.36 1026.11 1025.88 1025.64 1025.70
1012.37 1013.17 1014.16 1015.09 1015.91 1016.52 1016.96 1017.43 1017.79 1018.24 1018.61 1018.99 1019.31 1020.25 1021.30 1021.86 1022.31 1022.97 1023.44 1023.70 1023.69 1023.81 1024.12 1024.30 1024.39 1024.70 1024.93 1024.98 1024.98 1025.12 1025.17 1025.46 1025.89 1026.14 1026.28 1026.28 1026.24 1026.20 1026.63 1026.68 1026.42 1026.04 1025.69
1012.44 1013.20 1013.96 1014.75 1015.52 1016.40 1016.94 1017.40 1018.01 1018.57 1018.68 1019.04 1019.58 1020.23 1021.16 1022.03 1022.61 1023.14 1023.55 1023.73 1023.94 1024.19 1024.35 1024.45 1024.66 1024.85 1024.94 1025.12 1025.32 1025.49 1025.62 1025.69 1025.77 1025.93 1026.12 1026.26 1026.36 1026.27 1026.29 1026.44 1026.27 1026.08 1025.75
1012.33 1013.27 1014.27 1015.10 1015.81 1016.54 1017.31 1017.71 1018.25 1019.02 1019.26 1019.67 1020.20 1020.73 1021.28 1021.87 1022.60 1023.15 1023.57 1023.81 1024.14 1024.47 1024.60 1024.60 1024.84 1024.99 1025.05 1025.10 1025.21 1025.41 1025.63 1025.58 1025.62 1025.67 1025.80 1025.64 1025.70 1025.75 1025.87 1026.05 1025.95 1025.96 1025.74
1012.62 1013.51 1014.39 1015.08 1016.21 1016.90 1017.42 1017.98 1018.50 1019.16 1019.55 1020.06 1020.63 1021.07 1021.50 1021.99 1022.54 1023.02 1023.40 1023.92 1024.28 1024.55 1024.61 1024.78 1024.89 1024.86 1025.09 1025.13 1024.99 1025.14 1025.42 1025.31 1025.47 1025.60 1025.66 1025.75 1025.68 1025.58 1025.45 1025.67 1025.86 1025.89 1025.94
1012.77 1013.68 1014.57 1015.21 1016.14 1016.92 1017.48 1018.16 1018.72 1019.41 1019.95 1020.49 1020.99 1021.50 1021.83 1022.21 1022.65 1023.08 1023.59 1024.15 1024.38 1024.35 1024.73 1024.90 1024.85 1024.96 1025.03 1024.98 1024.88 1025.04 1025.05 1025.21 1025.25 1025.30 1025.52 1025.56 1025.65 1025.93 1025.72 1025.33 1025.51 1025.82 1026.24
1012.65 1013.55 1014.33 1015.05 1015.77 1016.47 1017.28 1018.24 1018.82 1019.56 1020.23 1020.82 1021.36 1021.88 1022.25 1022.58 1022.84 1023.22 1023.80 1024.18 1024.21 1024.56 1024.83 1024.86 1024.96 1025.08 1024.87 1024.61 1024.63 1024.81 1024.69 1024.92 1024.90 1024.79 1024.84 1025.33 1025.69 1025.86 1025.71 1025.50 1025.40 1025.52 1025.90
1012.17 1013.04 1013.86 1014.57 1015.28 1016.14 1016.91 1017.79 1018.72 1019.51 1020.35 1020.88 1021.49 1022.08 1022.47 1022.74 1022.97 1023.29 1023.62 1023.91 1024.19 1024.37 1024.68 1024.74 1024.96 1025.05 1025.10 1024.95 1024.84 1024.86 1024.48 1024.42 1024.46 1024.49 1024.65 1024.94 1025.27 1025.50 1025.59 1025.63 1025.66 1025.82 1026.06
1011.32 1012.08 1012.96 1013.98 1014.96 1015.77 1016.52 1017.20 1018.10 1019.06 1019.89 1020.55 1021.25 1021.91 1022.34 1022.65 1022.91 1023.21 1023.52 1023.82 1024.19 1024.30 1024.36 1024.47 1024.63 1024.66 1024.80 1024.70 1024.73 1024.88 1024.68 1024.50 1024.35 1024.51 1024.63 1024.91 1025.13 1025.29 1025.52 1025.61 1025.83 1025.86 1025.79
1010.92 1011.55 1012.45 1013.27 1014.18 1015.09 1015.82 1016.57 1017.47 1018.39 1019.23 1020.00 1020.74 1021.44 1021.92 1022.35 1022.74 1023.00 1023.31 1023.72 1023.93 1024.01 1024.18 1024.21 1024.22 1024.11 1024.05 1024.12 1024.31 1024.53 1024.54 1024.81 1024.92 1024.57 1024.55 1024.70 1024.79 1025.23 1025.51 1025.41 1025.68 1025.65 1025.54
1010.30 1011.01 1011.87 1012.55 1013.29 1014.07 1014.90 1015.93 1016.87 1017.68 1018.56 1019.39 1020.20 1020.82 1021.38 1021.85 1022.34 1022.82 1023.12 1023.34 1023.46 1023.80 1023.92 1023.93 1024.07 1023.89 1023.81 1023.65 1023.97 1024.40 1024.54 1024.60 1024.62 1024.87 1024.53 1024.73 1024.74 1024.86 1025.02 1025.03 1025.36 1025.38 1025.54
1010.42 1010.73 1011.31 1012.26 1013.03 1013.93 1014.77 1015.67 1016.47 1017.27 1017.94 1018.89 1019.65 1020.25 1020.71 1021.45 1022.16 1022.59 1022.79 1023.13 1023.35 1023.50 1023.39 1023.35 1023.40 1023.31 1023.46 1023.60 1023.90 1023.87 1024.06 1024.27 1024.50 1024.57 1024.69 1024.63 1024.48 1024.21 1024.68 1024.80 1025.12 1025.29 1025.38
1010.29 1010.59 1011.46 1011.97 1012.68 1013.53 1014.52 1015.30 1016.09 1016.79 1017.46 1018.35 1019.16 1019.77 1020.66 1021.27 1021.75 1022.45 1022.55 1022.87 1022.99 1022.97 1022.88 1023.01 1023.07 1022.96 1023.20 1023.42 1023.57 1024.03 1024.06 1024.32 1024.50 1024.54 1024.59 1024.53 1024.37 1024.28 1024.57 1024.86 1025.00 1025.09 1025.07
1010.46 1010.89 1011.54 1012.06 1012.70 1013.38 1013.95 1014.83 1015.64 1016.37 1017.25 1018.22 1018.98 1019.59 1020.42 1021.18 1021.71 1022.01 1022.67 1022.99 1022.88 1022.64 1022.55 1022.45 1022.47 1022.46 1022.79 1023.17 1023.39 1023.75 1024.07 1024.23 1024.37 1024.38 1024.51 1024.46 1024.45 1024.75 1024.99 1024.97 1024.88 1024.86 1024.59
1010.96 1011.29 1011.67 1012.24 1012.73 1013.15 1013.76 1014.52 1015.51 1016.51 1017.42 1018.43 1019.35 1019.87 1020.35 1021.29 1021.93 1022.52 1022.82 1022.93 1022.90 1022.79 1022.43 1022.31 1022.14 1022.25 1022.68 1022.99 1023.19 1023.66 1023.90 1024.10 1024.31 1024.27 1024.26 1024.31 1024.44 1024.69 1024.64 1024.70 1024.81 1024.74 1024.58
1011.64 1011.80 1011.88 1012.07 1012.46 1013.00 1013.74 1014.78 1016.06 1017.11 1018.19 1019.17 1019.78 1020.36 1021.14 1021.81 1022.41 1022.66 1022.93 1022.87 1022.67 1022.55 1022.34 1022.05 1021.87 1022.14 1022.76 1023.08 1023.37 1023.68 1023.97 1024.04 1024.11 1023.99 1023.91 1023.91 1024.21 1024.51 1024.32 1024.52 1024.61 1024.45 1024.16
1013.32 1013.48 1013.70 1013.95 1014.02 1014.41 1014.78 1015.93 1017.39 1018.21 1019.34 1019.94 1020.23 1020.89 1021.79 1022.43 1022.45 1022.69 1022.72 1022.61 1022.38 1022.25 1022.09 1022.00 1021.89 1022.03 1022.40 1022.78 1023.00 1023.27 1023.49 1023.87 1023.87 1023.75 1023.88 1023.78 1024.17 1024.15 1024.10 1024.13 1024.24 1024.14 1023.76
1015.01 1015.44 1015.50 1016.14 1016.75 1016.82 1016.76 1017.78 1018.82 1019.74 1020.29 1020.32 1020.67 1021.64 1022.13 1022.22 1022.30 1022.38 1022.35 1022.31 1022.20 1022.14 1022.12 1022.17 1021.92 1021.88 1021.92 1022.27 1022.46 1022.65 1023.08 1023.31 1023.49 1023.63 1023.71 1023.91 1023.76 1023.77 1023.60 1023.46 1023.58 1023.54 1023.24
1016.46 1016.97 1017.32 1018.08 1018.42 1018.49 1018.54 1019.62 1020.11 1020.65 1021.07 1020.87 1021.31 1021.76 1021.94 1022.07 1022.06 1022.10 1022.17 1022.23 1022.29 1022.39 1022.27 1021.97 1021.80 1021.55 1021.59 1021.62 1021.92 1022.14 1022.45 1022.65 1022.99 1023.22 1023.31 1023.46 1023.20 1023.05 1022.95 1022.94 1022.82 1022.62 1022.62
1017.79 1018.45 1018.63 1019.18 1019.57 1019.60 1019.53 1019.92 1020.60 1020.82 1021.02 1021.17 1021.44 1021.78 1022.00 1022.02 1021.94 1021.99 1022.17 1022.26 1022.22 1022.12 1022.02 1021.94 1021.68 1021.59 1021.23 1021.25 1021.23 1021.36 1021.60 1021.90 1022.35 1022.54 1022.73 1022.79 1022.63 1022.55 1022.48 1022.23 1022.05 1022.01 1022.16
1018.92 1019.27 1019.51 1019.90 1020.18 1020.24 1020.40 1020.46 1020.75 1021.03 1021.35 1021.67 1021.91 1021.99 1022.07 1021.99 1021.88 1021.81 1021.81 1021.99 1021.95 1021.84 1021.81 1021.77 1021.70 1021.50 1021.31 1020.94 1020.87 1021.11 1021.18 1021.39 1021.82 1022.00 1022.13 1022.45 1022.31 1022.18 1022.11 1021.88 1021.66 1021.59 1021.63
1019.75 1019.94 1020.18 1020.57 1020.78 1020.83 1020.97 1021.06 1021.24 1021.38 1021.60 1021.78 1021.99 1022.08 1022.07 1021.90 1021.79 1021.55 1021.35 1021.31 1021.06 1021.03 1020.97 1020.99 1020.99 1020.87 1020.59 1020.38 1020.49 1020.41 1020.65 1020.84 1021.11 1021.54 1021.87 1022.20 1022.20 1022.04 1021.78 1021.53 1021.34 1021.20 1021.23
1020.60 1020.76 1020.91 1021.05 1021.16 1021.21 1021.22 1021.15 1021.19 1021.33 1021.66 1021.81 1021.90 1021.97 1021.92 1021.71 1021.53 1021.25 1020.84 1020.54 1020.37 1020.34 1020.22 1020.01 1019.97 1019.76 1019.60 1019.48 1019.54 1019.81 1020.12 1020.23 1020.57 1021.10 1021.38 1021.60 1021.65 1021.56 1021.44 1021.32 1021.27 1021.01 1021.01
Thickness
5674 5678 5675 5667 5663 5659 5654 5651 5644 5636 5633 5622 5618 5611 5605 5602 5596 5596 5595 5588 5580 5571 5566 5562 5559 5554 5548 5542 5537 5533 5527 5522 5518 5512 5507 5503 5500 5494 5487 5482 5477 5471 5463
5670 5675 5673 5667 5663 5658 5652 5649 5642 5638 5630 5623 5618 5612 5605 5599 5598 5595 5585 5578 5572 5566 5562 5557 5550 5544 5539 5533 5526 5520 5514 5508 5502 5495 5489 5484 5484 5478 5472 5466 5459 5452 5446
5672 5672 5673 5664 5658 5651 5647 5645 5639 5636 5629 5624 5614 5609 5603 5596 5590 5583 5577 5571 5566 5561 5555 5549 5542 5534 5527 5520 5515 5509 5503 5494 5488 5482 5473 5463 5457 5456 5456 5451 5441 5431 5423
5672 5672 5669 5659 5653 5645 5644 5639 5635 5631 5627 5621 5615 5610 5601 5593 5586 5581 5573 5565 5561 5556 5548 5541 5531 5523 5516 5509 5503 5497 5489 5482 5471 5465 5459 5450 5443 5435 5429 5424 5417 5411 5400
5676 5671 5665 5658 5652 5648 5644 5638 5634 5629 5626 5621 5617 5606 5595 5587 5579 5570 5564 5558 5553 5544 5534 5526 5519 5510 5502 5495 5488 5481 5474 5466 5456 5448 5441 5433 5425 5418 5406 5398 5392 5387 5373
5668 5666 5665 5659 5654 5647 5641 5636 5630 5624 5621 5616 5609 5601 5590 5579 5570 5561 5552 5544 5537 5529 5522 5514 5505 5497 5489 5481 5473 5466 5458 5450 5443 5435 5426 5417 5407 5398 5390 5379 5371 5360 5346
5668 5662 5655 5648 5644 5639 5633 5629 5625 5616 5612 5604 5596 5588 5580 5571 5560 5550 5541 5534 5525 5516 5508 5501 5492 5484 5477 5469 5460 5452 5444 5437 5430 5422 5412 5404 5394 5383 5371 5356 5346 5333 5320
5664 5658 5651 5646 5638 5633 5627 5623 5618 5610 5603 5595 5585 5576 5569 5560 5551 5542 5533 5522 5512 5503 5496 5487 5478 5472 5463 5457 5449 5440 5431 5424 5415 5406 5395 5384 5374 5365 5354 5338 5318 5304 5294
5657 5654 5647 5644 5636 5628 5622 5615 5609 5602 5593 5584 5574 5564 5557 5549 5539 5530 5519 5508 5500 5491 5482 5473 5467 5458 5450 5443 5437 5428 5419 5410 5401 5390 5378 5366 5353 5339 5327 5315 5296 5277 5265
5655 5650 5646 5641 5635 5627 5617 5607 5600 5592 5582 5573 5562 5552 5543 5535 5527 5518 5506 5496 5488 5477 5468 5461 5452 5443 5438 5432 5424 5415 5406 5396 5386 5378 5368 5351 5337 5320 5306 5293 5280 5268 5256
5654 5648 5642 5639 5633 5624 5613 5602 5591 5582 5572 5562 5550 5539 5529 5522 5514 5505 5495 5486 5476 5466 5456 5447 5438 5430 5421 5414 5407 5399 5392 5382 5372 5361 5350 5335 5321 5304 5289 5276 5264 5254 5246
5658 5652 5644 5636 5626 5617 5608 5598 5585 5574 5563 5553 5540 5528 5518 5510 5501 5492 5484 5475 5465 5455 5445 5436 5427 5420 5409 5400 5392 5382 5374 5365 5356 5344 5331 5319 5305 5288 5273 5261 5250 5244 5239
5652 5647 5637 5631 5623 5613 5604 5592 5579 5567 5555 5545 5532 5518 5508 5498 5489 5481 5472 5462 5453 5444 5434 5425 5417 5410 5402 5390 5379 5368 5358 5345 5335 5327 5316 5302 5289 5272 5258 5250 5240 5235 5232
5650 5641 5631 5625 5617 5609 5600 5586 5572 5561 5549 5536 5523 5510 5500 5490 5480 5470 5460 5451 5442 5431 5422 5413 5404 5397 5389 5378 5366 5353 5343 5333 5321 5307 5298 5284 5272 5261 5249 5243 5233 5228 5222
5642 5632 5626 5615 5607 5597 5586 5577 5565 5553 5542 5528 5515 5503 5493 5481 5469 5457 5447 5437 5428 5419 5411 5404 5394 5384 5374 5363 5350 5342 5331 5319 5306 5293 5279 5268 5261 5254 5241 5233 5224 5219 5213
5636 5632 5620 5612 5603 5592 5581 5569 5557 5544 5533 5518 5506 5494 5482 5469 5457 5444 5436 5426 5417 5408 5399 5389 5380 5371 5362 5350 5336 5324 5316 5303 5291 5279 5267 5257 5248 5240 5231 5223 5217 5211 5207
5627 5620 5610 5603 5594 5583 5575 5563 5550 5538 5523 5509 5497 5484 5470 5457 5445 5435 5422 5411 5402 5395 5386 5377 5369 5361 5348 5335 5322 5309 5299 5288 5276 5265 5254 5245 5237 5228 5221 5214 5209 5204 5199
5614 5609 5601 5590 5582 5574 5564 5552 5539 5525 5512 5498 5483 5471 5460 5445 5431 5418 5407 5397 5387 5377 5371 5362 5355 5345 5332 5321 5309 5297 5286 5275 5263 5254 5244 5235 5228 5219 5214 5208 5202 5197 5193
5601 5595 5593 5587 5576 5565 5552 5539 5522 5508 5494 5479 5467 5455 5441 5428 5414 5404 5392 5382 5374 5364 5356 5349 5342 5331 5318 5305 5293 5282 5273 5263 5253 5245 5237 5230 5221 5213 5209 5202 5196 5192 5188
5577 5569 5564 5556 5549 5541 5534 5518 5500 5487 5471 5459 5450 5437 5423 5410 5401 5388 5379 5370 5362 5354 5345 5336 5328 5316 5304 5294 5283 5273 5262 5253 5244 5238 5230 5223 5214 5208 5204 5197 5191 5186 5185
5549 5540 5535 5524 5513 5509 5504 5490 5475 5460 5450 5444 5434 5418 5406 5396 5386 5377 5367 5358 5349 5340 5331 5322 5313 5306 5297 5285 5274 5264 5253 5245 5237 5229 5221 5215 5210 5205 5200 5196 5190 5185 5182
5528 5518 5510 5498 5490 5484 5479 5464 5454 5444 5434 5428 5415 5403 5393 5384 5375 5364 5353 5342 5334 5325 5317 5311 5305 5298 5290 5282 5270 5258 5248 5240 5230 5224 5217 5210 5207 5203 5199 5194 5189 5185 5181
5504 5494 5488 5480 5471 5466 5461 5451 5440 5431 5422 5413 5402 5390 5379 5369 5360 5350 5340 5329 5319 5310 5305 5300 5292 5287 5281 5273 5266 5258 5248 5239 5227 5220 5213 5208 5205 5200 5196 5193 5190 5185 5178
5485 5479 5472 5463 5455 5450 5442 5435 5426 5416 5405 5393 5383 5373 5363 5354 5345 5337 5329 5318 5306 5298 5293 5287 5282 5276 5271 5264 5257 5250 5244 5236 5225 5217 5210 5205 5201 5197 5194 5192 5190 5186 5180
5467 5461 5454 5445 5438 5432 5424 5415 5406 5397 5387 5378 5367 5357 5347 5339 5331 5324 5318 5311 5305 5297 5287 5278 5273 5266 5264 5257 5250 5245 5237 5230 5222 5212 5205 5199 5195 5194 5193 5191 5189 5186 5182
5447 5442 5434 5428 5421 5414 5406 5399 5391 5382 5371 5361 5350 5340 5332 5324 5318 5313 5310 5305 5299 5292 5284 5277 5267 5261 5255 5252 5244 5237 5231 5226 5219 5211 5203 5196 5191 5189 5190 5187 5186 5183 5180